Weather History for Spokane Fairchild, WA

Change the Weather History Date:

Monday, November 4, 2013

  Actual Average Record
Temperature  
Mean Temperature 30 °F -  
Max Temperature 37 °F 44 °F 59 °F (2001)
Min Temperature 24 °F 28 °F 15 °F (2003)
Degree Days  
Heating Degree Days 34    
Moisture  
Dew Point 26 °F    
Average Humidity 93    
Maximum Humidity 100    
Minimum Humidity 65    
Precipitation  
Precipitation 0.00 in - - ()
Sea Level Pressure  
Sea Level Pressure 30.03 in    
Wind  
Wind Speed 3 mph (South)    
Max Wind Speed 6 mph    
Max Gust Speed -    
Visibility 5 miles    
Events Fog    
Averages and records for this station are not official NWS values.
T = Trace of Precipitation, MM = Missing Value Source: NWS Daily Summary

Daily Weather History Graph

Daily Weather History Graph

Search for Another Location

Airport:

Trip Planner

Search our weather history database for the weather conditions in past years. The results will help you decide how hot, cold, wet, or windy it might be!

Date:

Astronomy

Nov. 04, 2013 Rise Set
Actual Time 6:39 AM PST 4:27 PM PST
Civil Twilight 6:07 AM PST 5:00 PM PST
Nautical Twilight 5:30 AM PST 5:37 PM PST
Astronomical Twilight 4:54 AM PST 6:12 PM PST
Moon 8:00 AM PST (11/4) 5:31 PM PST (11/4)
Length of Visible Light 10h 53m
Length of Day
9h 48m
New Moon, 2% of the Moon is Illuminated
Nov 4
New Moon
Nov 9
First Quarter
Nov 17
Full
Nov 25
Last Quarter
Dec 2
New

Hourly Weather History & Observations

Time (PST) Temp. Windchill Dew Point Humidity Pressure Visibility Wind Dir Wind Speed Gust Speed Precip Events Conditions
12:58 AM 29.3 °F 24.3 °F 28.6 °F 97% 30.03 in 10.0 mi WSW 4.6 mph - N/A   Overcast
1:07 AM 28.4 °F 22.2 °F 28.4 °F 100% 29.96 in 10.0 mi SW 5.8 mph - N/A   Overcast
1:16 AM 28.4 °F 23.3 °F 28.4 °F 100% 29.96 in 10.0 mi SW 4.6 mph - N/A   Overcast
1:21 AM 28.4 °F 24.6 °F 28.4 °F 100% 29.95 in 10.0 mi South 3.5 mph - N/A   Mostly Cloudy
1:32 AM 28.4 °F - 28.4 °F 100% 29.95 in 10.0 mi ENE 1.2 mph - N/A   Mostly Cloudy
1:44 AM 28.4 °F - 26.6 °F 93% 29.95 in 7.0 mi SSE 1.2 mph - N/A   Overcast
1:48 AM 28.4 °F - 26.6 °F 93% 29.95 in 4.0 mi SE 2.3 mph - N/A   Overcast
1:51 AM 28.4 °F 24.6 °F 26.6 °F 93% 29.95 in 2.0 mi ESE 3.5 mph - N/A   Overcast
1:53 AM 28.4 °F 23.3 °F 28.4 °F 100% 29.95 in 1.5 mi ESE 4.6 mph - N/A   Overcast
1:55 AM 28.4 °F 23.3 °F 28.4 °F 100% 29.95 in 1.2 mi SE 4.6 mph - N/A   Overcast
1:56 AM 28.4 °F 23.3 °F 28.4 °F 100% 29.95 in 1.0 mi SE 4.6 mph - N/A   Overcast
1:58 AM 28.4 °F 23.3 °F 28.4 °F 100% 30.01 in 1.0 mi SSE 4.6 mph - 0.00 in   Overcast
1:59 AM 28.4 °F 23.3 °F 28.4 °F 100% 29.95 in 1.0 mi SSE 4.6 mph - N/A   Overcast
2:02 AM 28.4 °F 23.3 °F 28.4 °F 100% 29.95 in 1.0 mi SSE 4.6 mph - N/A   Overcast
2:03 AM 28.4 °F 23.3 °F 28.4 °F 100% 29.95 in 1.2 mi SSE 4.6 mph - N/A   Overcast
2:05 AM 28.4 °F 24.6 °F 28.4 °F 100% 29.95 in 1.5 mi SSE 3.5 mph - N/A   Overcast
2:07 AM 28.4 °F 23.3 °F 26.6 °F 93% 29.95 in 2.5 mi SSE 4.6 mph - N/A   Overcast
2:09 AM 28.4 °F 24.6 °F 26.6 °F 93% 29.95 in 4.0 mi South 3.5 mph - N/A   Overcast
2:13 AM 28.4 °F - 26.6 °F 93% 29.95 in 9.0 mi South 2.3 mph - N/A   Overcast
2:33 AM 28.4 °F 24.6 °F 26.6 °F 93% 29.95 in 10.0 mi South 3.5 mph - N/A   Mostly Cloudy
2:50 AM 26.6 °F 20.0 °F 26.6 °F 100% 29.96 in 10.0 mi South 5.8 mph - N/A   Scattered Clouds
2:57 AM 26.6 °F 22.6 °F 26.6 °F 100% 29.96 in 8.0 mi South 3.5 mph - N/A   Partly Cloudy
2:58 AM 27.3 °F 23.4 °F 26.8 °F 98% 30.03 in 8.0 mi South 3.5 mph - N/A   Partly Cloudy
3:00 AM 26.6 °F - 26.6 °F 100% 29.96 in 7.0 mi South 2.3 mph - N/A   Partly Cloudy
3:07 AM 26.6 °F - 26.6 °F 100% 29.96 in 3.0 mi SSW 2.3 mph - N/A   Partly Cloudy
3:09 AM 26.6 °F - 26.6 °F 100% 29.96 in 1.8 mi South 2.3 mph - N/A   Partly Cloudy
3:10 AM 26.6 °F - 26.6 °F 100% 29.96 in 1.5 mi South 2.3 mph - N/A   Partly Cloudy
3:12 AM 26.6 °F 22.6 °F 24.8 °F 93% 29.96 in 1.0 mi South 3.5 mph - N/A   Mist
3:13 AM 26.6 °F 22.6 °F 24.8 °F 93% 29.96 in 1.0 mi South 3.5 mph - N/A   Mist
3:14 AM 26.6 °F 22.6 °F 24.8 °F 93% 29.96 in 0.8 mi South 3.5 mph - N/A   Mist
3:16 AM 26.6 °F 22.6 °F 24.8 °F 93% 29.96 in 0.8 mi South 3.5 mph - N/A   Mist
3:20 AM 26.6 °F 22.6 °F 24.8 °F 93% 29.96 in 0.5 mi South 3.5 mph - N/A Fog Light Freezing Fog
3:23 AM 26.6 °F - 24.8 °F 93% 29.96 in 0.5 mi South 1.2 mph - N/A Fog Light Freezing Fog
3:29 AM 26.6 °F - 24.8 °F 93% 29.97 in 0.2 mi South 2.3 mph - N/A Fog Light Freezing Fog
3:38 AM 26.6 °F 20.0 °F 24.8 °F 93% 29.96 in 0.2 mi South 5.8 mph - N/A Fog Light Freezing Fog
3:52 AM 26.6 °F 20.0 °F 24.8 °F 93% 29.96 in 0.5 mi South 5.8 mph - N/A Fog Light Freezing Fog
3:58 AM 26.2 °F 20.7 °F 25.5 °F 97% 30.04 in 0.5 mi South 4.6 mph - 0.00 in Fog Light Freezing Fog
4:08 AM 26.6 °F 22.6 °F 26.6 °F 100% 29.97 in 0.5 mi South 3.5 mph - N/A Fog Light Freezing Fog
4:12 AM 26.6 °F 22.6 °F 26.6 °F 100% 29.97 in 0.5 mi South 3.5 mph - N/A Fog Light Freezing Fog
4:14 AM 26.6 °F 22.6 °F 26.6 °F 100% 29.97 in 0.5 mi South 3.5 mph - N/A Fog Light Freezing Fog
4:17 AM 26.6 °F 21.2 °F 26.6 °F 100% 29.97 in 0.5 mi South 4.6 mph - N/A Fog Light Freezing Fog
4:18 AM 26.6 °F 22.6 °F 26.6 °F 100% 29.97 in 0.5 mi South 3.5 mph - N/A Fog Light Freezing Fog
4:23 AM 26.6 °F - 24.8 °F 93% 29.97 in 0.5 mi South 2.3 mph - N/A Fog Light Freezing Fog
4:29 AM 26.6 °F - 24.8 °F 93% 29.97 in 0.5 mi Calm Calm - N/A Fog Light Freezing Fog
4:34 AM 26.6 °F - 24.8 °F 93% 29.97 in 0.5 mi Calm Calm - N/A Fog Light Freezing Fog
4:40 AM 26.6 °F - 24.8 °F 93% 29.97 in 0.5 mi South 2.3 mph - N/A Fog Light Freezing Fog
4:58 AM 26.2 °F - 25.3 °F 96% 30.07 in 0.5 mi West 2.3 mph - 0.00 in Fog Light Freezing Fog
5:08 AM 26.6 °F - 24.8 °F 93% 29.98 in 0.5 mi SW 1.2 mph - N/A Fog Light Freezing Fog
5:13 AM 24.8 °F - 24.8 °F 100% 29.98 in 0.5 mi South 1.2 mph - N/A Fog Light Freezing Fog
5:19 AM 24.8 °F - 24.8 °F 100% 29.98 in 0.5 mi Calm Calm - N/A Fog Light Freezing Fog
5:27 AM 26.6 °F - 24.8 °F 93% 29.98 in 0.2 mi SW 1.2 mph - N/A Fog Light Freezing Fog
5:28 AM 26.6 °F - 24.8 °F 93% 29.98 in 0.2 mi WSW 1.2 mph - N/A Fog Light Freezing Fog
5:42 AM 26.6 °F - 24.8 °F 93% 29.99 in 0.2 mi Calm Calm - N/A Fog Light Freezing Fog
5:44 AM 24.8 °F - 24.8 °F 100% 29.99 in 0.5 mi Calm Calm - N/A Fog Light Freezing Fog
5:47 AM 24.8 °F - 24.8 °F 100% 29.99 in 0.5 mi Calm Calm - N/A Fog Light Freezing Fog
5:48 AM 24.8 °F - 24.8 °F 100% 29.99 in 0.5 mi Calm Calm - N/A Fog Light Freezing Fog
5:50 AM 24.8 °F - 24.8 °F 100% 29.99 in 0.8 mi Calm Calm - N/A   Overcast
5:52 AM 24.8 °F - 24.8 °F 100% 29.99 in 0.8 mi Calm Calm - N/A   Overcast
5:54 AM 24.8 °F - 24.8 °F 100% 29.99 in 1.0 mi Calm Calm - N/A   Overcast
5:55 AM 24.8 °F - 24.8 °F 100% 29.99 in 1.2 mi Calm Calm - N/A   Overcast
5:58 AM 24.8 °F - 24.8 °F 100% 30.08 in 1.2 mi Calm Calm - N/A   Overcast
6:02 AM 24.8 °F - 24.8 °F 100% 29.99 in 1.5 mi Calm Calm - N/A   Overcast
6:06 AM 24.8 °F - 24.8 °F 100% 30.00 in 1.8 mi Calm Calm - N/A   Overcast
6:08 AM 24.8 °F - 24.8 °F 100% 30.00 in 2.0 mi Calm Calm - N/A   Overcast
6:10 AM 24.8 °F - 24.8 °F 100% 30.00 in 2.5 mi Calm Calm - N/A   Overcast
6:12 AM 24.8 °F - 24.8 °F 100% 30.00 in 3.0 mi Calm Calm - N/A   Overcast
6:22 AM 24.8 °F - 23.0 °F 93% 30.00 in 2.0 mi Calm Calm - N/A   Overcast
6:24 AM 24.8 °F - 23.0 °F 93% 30.00 in 1.2 mi West 1.2 mph - N/A   Overcast
6:25 AM 24.8 °F - 23.0 °F 93% 30.00 in 1.0 mi WSW 1.2 mph - N/A   Mostly Cloudy
6:26 AM 24.8 °F - 23.0 °F 93% 30.00 in 1.0 mi WSW 2.3 mph - N/A   Mostly Cloudy
6:28 AM 24.8 °F - 23.0 °F 93% 30.00 in 0.8 mi West 2.3 mph - N/A   Mostly Cloudy
6:30 AM 24.8 °F - 23.0 °F 93% 30.00 in 0.5 mi West 2.3 mph - N/A Fog Light Freezing Fog
6:33 AM 24.8 °F - 23.0 °F 93% 30.00 in 0.5 mi WSW 2.3 mph - N/A Fog Light Freezing Fog
6:34 AM 24.8 °F - 23.0 °F 93% 30.00 in 0.5 mi WSW 2.3 mph - N/A Fog Light Freezing Fog
6:35 AM 24.8 °F - 23.0 °F 93% 30.00 in 0.5 mi West 2.3 mph - N/A Fog Light Freezing Fog
6:37 AM 24.8 °F - 24.8 °F 100% 30.00 in 0.8 mi West 2.3 mph - N/A   Mostly Cloudy
6:39 AM 24.8 °F - 24.8 °F 100% 30.01 in 1.2 mi West 2.3 mph - N/A   Overcast
6:41 AM 24.8 °F - 24.8 °F 100% 30.01 in 3.0 mi West 1.2 mph - N/A   Overcast
6:58 AM 24.6 °F - 23.5 °F 96% 30.10 in 10.0 mi SW 2.3 mph - N/A   Overcast
7:58 AM 26.6 °F - 25.9 °F 97% 30.11 in 10.0 mi WSW 2.3 mph - N/A   Overcast
8:19 AM 26.6 °F - 26.6 °F 100% 30.03 in 10.0 mi Variable 1.2 mph - N/A   Overcast
8:39 AM 26.6 °F - 26.6 °F 100% 30.04 in 10.0 mi Calm Calm - N/A   Overcast
8:58 AM 27.5 °F - 26.8 °F 97% 30.12 in 10.0 mi Calm Calm - N/A   Overcast
9:24 AM 28.4 °F - 26.6 °F 93% 30.05 in 9.0 mi NNE 1.2 mph - N/A   Overcast
9:39 AM 28.4 °F - 28.4 °F 100% 30.05 in 5.0 mi Calm Calm - N/A   Overcast
9:43 AM 28.4 °F - 28.4 °F 100% 30.05 in 5.0 mi NNE 2.3 mph - N/A   Overcast
9:58 AM 29.7 °F - 28.4 °F 95% 30.14 in 6.0 mi Calm Calm - 0.00 in   Overcast
10:09 AM 32.0 °F - 28.4 °F 87% 30.06 in 4.0 mi ESE 1.2 mph - N/A   Overcast
10:27 AM 32.0 °F - 28.4 °F 87% 30.06 in 10.0 mi ESE 2.3 mph - N/A   Overcast
10:47 AM 32.0 °F - 28.4 °F 87% 30.07 in 10.0 mi Calm Calm - N/A   Overcast
10:58 AM 31.3 °F - 29.5 °F 93% 30.15 in 10.0 mi Calm Calm - 0.00 in   Overcast
11:30 AM 32.0 °F - 30.2 °F 93% 30.07 in 10.0 mi Variable 2.3 mph - N/A   Overcast
11:31 AM 32.0 °F - 28.4 °F 87% 30.07 in 10.0 mi Variable 2.3 mph - N/A   Overcast
11:42 AM 32.0 °F - 28.4 °F 87% 30.08 in 10.0 mi Variable 1.2 mph - N/A   Overcast
11:57 AM 33.8 °F - 30.2 °F 87% 30.08 in 10.0 mi Variable 1.2 mph - N/A   Overcast
11:58 AM 33.6 °F - 29.8 °F 86% 30.16 in 10.0 mi Variable 1.2 mph - 0.00 in   Overcast
12:07 PM 33.8 °F - 30.2 °F 87% 30.08 in 10.0 mi ESE 1.2 mph - N/A   Overcast
12:17 PM 33.8 °F 30.8 °F 30.2 °F 87% 30.08 in 10.0 mi SSW 3.5 mph - N/A   Overcast
12:22 PM 33.8 °F - 30.2 °F 87% 30.08 in 10.0 mi ENE 1.2 mph - N/A   Overcast
12:26 PM 33.8 °F - 30.2 °F 87% 30.08 in 10.0 mi SSW 1.2 mph - N/A   Overcast
12:58 PM 35.2 °F - 29.3 °F 79% 30.16 in 10.0 mi Variable 2.3 mph - 0.00 in   Overcast
1:18 PM 35.6 °F 31.7 °F 28.4 °F 75% 30.08 in 10.0 mi SW 4.6 mph - N/A   Overcast
1:27 PM 35.6 °F - 28.4 °F 75% 30.08 in 10.0 mi SSW 2.3 mph - N/A   Overcast
1:48 PM 35.6 °F - 28.4 °F 75% 30.08 in 10.0 mi South 2.3 mph - N/A   Overcast
1:58 PM 36.0 °F - 27.7 °F 72% 30.16 in 10.0 mi SSW 2.3 mph - 0.00 in   Overcast
2:05 PM 35.6 °F - 26.6 °F 70% 30.09 in 10.0 mi SW 1.2 mph - N/A   Overcast
2:58 PM 36.5 °F 32.7 °F 27.1 °F 69% 30.17 in 10.0 mi South 4.6 mph - 0.00 in   Overcast
3:31 PM 37.4 °F 34.9 °F 26.6 °F 65% 30.09 in 10.0 mi East 3.5 mph - N/A   Overcast
3:45 PM 35.6 °F 31.7 °F 28.4 °F 75% 30.10 in 10.0 mi SSE 4.6 mph - N/A   Overcast
3:58 PM 35.8 °F 31.9 °F 28.4 °F 75% 30.18 in 10.0 mi SSE 4.6 mph - 0.00 in   Overcast
4:58 PM 34.0 °F 29.8 °F 27.3 °F 77% 30.18 in 10.0 mi SSE 4.6 mph - N/A   Overcast
5:58 PM 32.7 °F 27.3 °F 27.3 °F 81% 30.21 in 10.0 mi South 5.8 mph - N/A   Overcast
6:58 PM 30.9 °F 25.2 °F 26.6 °F 84% 30.21 in 10.0 mi SSE 5.8 mph - N/A   Mostly Cloudy
7:58 PM 29.1 °F 23.0 °F 25.9 °F 88% 30.21 in 10.0 mi SSE 5.8 mph - N/A   Mostly Cloudy
8:58 PM 28.0 °F 21.7 °F 25.2 °F 89% 30.22 in 10.0 mi SSE 5.8 mph - N/A   Clear
9:58 PM 27.3 °F 20.9 °F 25.2 °F 92% 30.22 in 10.0 mi SSE 5.8 mph - N/A   Clear
10:58 PM 27.0 °F 21.6 °F 24.8 °F 92% 30.22 in 10.0 mi SSE 4.6 mph - N/A   Clear
11:58 PM 27.1 °F 23.2 °F 25.0 °F 92% 30.22 in 10.0 mi SSE 3.5 mph - N/A   Mostly Cloudy